Wetterdaten: Donnerstag, 28.04.2016
Datum Zeit Auen-Temp. Temp gefhlt Luftfeuchte Luftdruck Regen Wind Richtung Richtung Sonnenschein Taupunkt Windben
28.04.2016 00:00 -2,5 C -3,3 C 75 % 1012,8 hPa 0,0 mm 0,0 km/h (0 Bft) O-NO 67 0 min -6,3 C 0,0 km/h (0 Bft)
28.04.2016 00:05 -2,7 C -3,4 C 76 % 1012,8 hPa 0,0 mm 0,0 km/h (0 Bft) NO 45 0 min -6,3 C 0,0 km/h (0 Bft)
28.04.2016 00:10 -2,7 C -3,5 C 76 % 1012,8 hPa 0,0 mm 0,0 km/h (0 Bft) S 180 0 min -6,3 C 0,0 km/h (0 Bft)
28.04.2016 00:15 -2,4 C -3,2 C 76 % 1012,8 hPa 0,0 mm 0,0 km/h (0 Bft) O-NO 67 0 min -6,0 C 0,0 km/h (0 Bft)
28.04.2016 00:20 -2,6 C -3,4 C 76 % 1012,8 hPa 0,0 mm 0,0 km/h (0 Bft) O-NO 67 0 min -6,2 C 0,0 km/h (0 Bft)
28.04.2016 00:25 -2,6 C -3,4 C 76 % 1012,8 hPa 0,0 mm 0,0 km/h (0 Bft) NO 45 0 min -6,2 C 0,0 km/h (0 Bft)
28.04.2016 00:30 -3,0 C -3,7 C 75 % 1012,8 hPa 0,0 mm 0,0 km/h (0 Bft) O-NO 67 0 min -6,8 C 0,0 km/h (0 Bft)
28.04.2016 00:35 -3,1 C -3,8 C 76 % 1012,7 hPa 0,0 mm 0,0 km/h (0 Bft) N-NO 22 0 min -6,7 C 0,0 km/h (0 Bft)
28.04.2016 00:40 -3,2 C -3,9 C 75 % 1012,7 hPa 0,0 mm 0,0 km/h (0 Bft) S-SO 157 0 min -7,0 C 0,0 km/h (0 Bft)
28.04.2016 00:45 -3,5 C -4,2 C 75 % 1012,7 hPa 0,0 mm 0,0 km/h (0 Bft) N-NO 22 0 min -7,3 C 0,0 km/h (0 Bft)
28.04.2016 00:50 -3,6 C -4,2 C 75 % 1012,7 hPa 0,0 mm 0,0 km/h (0 Bft) NW 315 0 min -7,4 C 0,0 km/h (0 Bft)
28.04.2016 00:55 -3,3 C -4,0 C 76 % 1012,5 hPa 0,0 mm 0,3 km/h (0 Bft) O-NO 67 0 min -6,9 C 3,0 km/h (1 Bft)
28.04.2016 01:00 -3,0 C -3,8 C 77 % 1012,5 hPa 0,0 mm 0,9 km/h (0 Bft) SO 135 0 min -6,4 C 0,0 km/h (0 Bft)
28.04.2016 01:05 -3,3 C -3,9 C 77 % 1012,5 hPa 0,0 mm 0,3 km/h (0 Bft) O-SO 112 0 min -6,7 C 11,3 km/h (2 Bft)
28.04.2016 01:10 -3,1 C -3,8 C 77 % 1012,5 hPa 0,0 mm 0,0 km/h (0 Bft) SW 225 0 min -6,5 C 0,0 km/h (0 Bft)
28.04.2016 01:15 -2,8 C -3,6 C 78 % 1012,3 hPa 0,0 mm 0,0 km/h (0 Bft) O-SO 112 0 min -6,1 C 0,0 km/h (0 Bft)
28.04.2016 01:20 -2,8 C -3,5 C 78 % 1012,3 hPa 0,0 mm 0,0 km/h (0 Bft) N-NO 22 0 min -6,1 C 0,0 km/h (0 Bft)
28.04.2016 01:25 -3,2 C -3,8 C 77 % 1012,3 hPa 0,0 mm 0,3 km/h (0 Bft) S 180 0 min -6,6 C 0,0 km/h (0 Bft)
28.04.2016 01:30 -3,0 C -3,7 C 78 % 1012,3 hPa 0,0 mm 0,3 km/h (0 Bft) NW 315 0 min -6,3 C 4,2 km/h (1 Bft)
28.04.2016 01:35 -2,8 C -3,4 C 78 % 1012,4 hPa 0,0 mm 1,8 km/h (1 Bft) O-NO 67 0 min -6,1 C 18,5 km/h (3 Bft)
28.04.2016 01:40 -3,0 C -3,6 C 77 % 1012,4 hPa 0,0 mm 1,8 km/h (1 Bft) O-NO 67 0 min -6,4 C 0,0 km/h (0 Bft)
28.04.2016 01:45 -3,2 C -3,8 C 77 % 1012,4 hPa 0,0 mm 0,0 km/h (0 Bft) S-SO 157 0 min -6,6 C 0,0 km/h (0 Bft)
28.04.2016 01:50 -3,0 C -3,7 C 77 % 1012,4 hPa 0,0 mm 0,0 km/h (0 Bft) SO 135 0 min -6,4 C 0,0 km/h (0 Bft)
28.04.2016 01:55 -2,8 C -3,5 C 77 % 1012,4 hPa 0,0 mm 0,0 km/h (0 Bft) O-NO 67 0 min -6,3 C 0,0 km/h (0 Bft)
28.04.2016 02:00 -3,1 C -3,8 C 77 % 1012,4 hPa 0,0 mm 0,0 km/h (0 Bft) O-NO 67 0 min -6,5 C 0,0 km/h (0 Bft)
28.04.2016 02:05 -3,3 C -4,0 C 76 % 1012,4 hPa 0,0 mm 0,0 km/h (0 Bft) NO 45 0 min -6,9 C 0,0 km/h (0 Bft)
28.04.2016 02:07 -3,5 C -4,1 C 76 % 1012,4 hPa 0,0 mm 0,0 km/h (0 Bft) SW 225 0 min -7,1 C 0,0 km/h (0 Bft)
28.04.2016 02:10 -3,5 C -4,1 C 76 % 1012,4 hPa 0,0 mm 0,0 km/h (0 Bft) SW 225 0 min -7,1 C 0,0 km/h (0 Bft)
28.04.2016 02:15 -3,5 C -4,1 C 76 % 1012,3 hPa 0,0 mm 0,0 km/h (0 Bft) NO 45 0 min -7,1 C 0,0 km/h (0 Bft)
28.04.2016 02:20 -3,8 C -4,3 C 76 % 1012,3 hPa 0,0 mm 0,0 km/h (0 Bft) O-NO 67 0 min -7,4 C 0,0 km/h (0 Bft)
28.04.2016 02:25 -4,1 C -4,6 C 75 % 1012,3 hPa 0,0 mm 0,0 km/h (0 Bft) NO 45 0 min -7,9 C 0,0 km/h (0 Bft)
28.04.2016 02:30 -3,9 C -4,5 C 76 % 1012,3 hPa 0,0 mm 0,0 km/h (0 Bft) O-SO 112 0 min -7,5 C 0,0 km/h (0 Bft)
28.04.2016 02:35 -3,8 C -4,4 C 76 % 1012,2 hPa 0,0 mm 0,0 km/h (0 Bft) NO 45 0 min -7,4 C 0,0 km/h (0 Bft)
28.04.2016 02:40 -4,0 C -4,6 C 76 % 1012,2 hPa 0,0 mm 0,0 km/h (0 Bft) NO 45 0 min -7,6 C 0,0 km/h (0 Bft)
28.04.2016 02:45 -4,0 C -4,7 C 76 % 1012,2 hPa 0,0 mm 0,0 km/h (0 Bft) O-NO 67 0 min -7,6 C 0,0 km/h (0 Bft)
28.04.2016 02:50 -4,2 C -4,8 C 76 % 1012,2 hPa 0,0 mm 0,0 km/h (0 Bft) O-NO 67 0 min -7,8 C 0,0 km/h (0 Bft)
28.04.2016 02:55 -4,0 C -4,6 C 77 % 1012,2 hPa 0,0 mm 0,0 km/h (0 Bft) SO 135 0 min -7,4 C 0,0 km/h (0 Bft)
28.04.2016 03:00 -3,8 C -4,5 C 77 % 1012,2 hPa 0,0 mm 0,0 km/h (0 Bft) O 90 0 min -7,2 C 0,0 km/h (0 Bft)
28.04.2016 03:05 -3,8 C -4,5 C 77 % 1012,2 hPa 0,0 mm 0,0 km/h (0 Bft) O 90 0 min -7,2 C 0,0 km/h (0 Bft)
28.04.2016 03:10 -4,1 C -4,7 C 77 % 1012,2 hPa 0,0 mm 0,0 km/h (0 Bft) NW 315 0 min -7,5 C 0,0 km/h (0 Bft)
28.04.2016 03:15 -3,9 C -4,6 C 77 % 1012,2 hPa 0,0 mm 0,0 km/h (0 Bft) N-NO 22 0 min -7,3 C 0,0 km/h (0 Bft)
28.04.2016 03:20 -3,8 C -4,5 C 77 % 1012,2 hPa 0,0 mm 0,0 km/h (0 Bft) O-SO 112 0 min -7,2 C 0,0 km/h (0 Bft)
28.04.2016 03:25 -3,9 C -4,6 C 77 % 1012,2 hPa 0,0 mm 0,0 km/h (0 Bft) O-SO 112 0 min -7,3 C 0,0 km/h (0 Bft)
28.04.2016 03:30 -4,2 C -4,8 C 77 % 1012,2 hPa 0,0 mm 0,0 km/h (0 Bft) N-NO 22 0 min -7,6 C 0,0 km/h (0 Bft)
28.04.2016 03:35 -4,2 C -4,8 C 77 % 1012,3 hPa 0,0 mm 0,0 km/h (0 Bft) N-NO 22 0 min -7,6 C 0,0 km/h (0 Bft)
28.04.2016 03:40 -4,1 C -4,8 C 78 % 1012,3 hPa 0,0 mm 0,0 km/h (0 Bft) O-SO 112 0 min -7,4 C 0,0 km/h (0 Bft)
28.04.2016 03:45 -4,3 C -5,0 C 77 % 1012,3 hPa 0,0 mm 0,0 km/h (0 Bft) O-NO 67 0 min -7,7 C 0,0 km/h (0 Bft)
28.04.2016 03:50 -4,6 C -5,2 C 77 % 1012,3 hPa 0,0 mm 0,0 km/h (0 Bft) O-NO 67 0 min -8,0 C 0,0 km/h (0 Bft)
28.04.2016 03:55 -4,8 C -5,3 C 77 % 1012,2 hPa 0,0 mm 0,0 km/h (0 Bft) N-NO 22 0 min -8,2 C 0,0 km/h (0 Bft)
28.04.2016 04:00 -4,8 C -5,3 C 77 % 1012,2 hPa 0,0 mm 0,0 km/h (0 Bft) O-NO 67 0 min -8,2 C 0,0 km/h (0 Bft)
28.04.2016 04:05 -4,8 C -5,4 C 77 % 1012,2 hPa 0,0 mm 0,0 km/h (0 Bft) O-NO 67 0 min -8,2 C 0,0 km/h (0 Bft)
28.04.2016 04:10 -4,6 C -5,3 C 77 % 1012,2 hPa 0,0 mm 0,0 km/h (0 Bft) O-NO 67 0 min -8,0 C 0,0 km/h (0 Bft)
28.04.2016 04:15 -4,5 C -5,1 C 78 % 1012,0 hPa 0,0 mm 0,0 km/h (0 Bft) N-NO 22 0 min -7,7 C 0,0 km/h (0 Bft)
28.04.2016 04:20 -4,3 C -4,9 C 78 % 1012,0 hPa 0,0 mm 0,0 km/h (0 Bft) O-NO 67 0 min -7,5 C 0,0 km/h (0 Bft)
28.04.2016 04:25 -4,0 C -4,5 C 75 % 1012,0 hPa 0,0 mm 0,0 km/h (0 Bft) O-SO 112 0 min -7,8 C 0,0 km/h (0 Bft)
28.04.2016 04:30 -3,8 C -4,3 C 75 % 1012,0 hPa 0,0 mm 0,0 km/h (0 Bft) N-NO 22 0 min -7,6 C 0,0 km/h (0 Bft)
28.04.2016 04:35 -3,7 C -4,2 C 78 % 1011,9 hPa 0,0 mm 0,0 km/h (0 Bft) O-NO 67 0 min -7,0 C 0,0 km/h (0 Bft)
28.04.2016 04:40 -3,6 C -4,0 C 75 % 1011,9 hPa 0,0 mm 0,0 km/h (0 Bft) N-NO 22 0 min -7,4 C 0,0 km/h (0 Bft)
28.04.2016 04:45 -3,5 C -3,8 C 75 % 1011,9 hPa 0,0 mm 0,0 km/h (0 Bft) W-SW 247 0 min -7,3 C 0,0 km/h (0 Bft)
28.04.2016 04:50 -3,4 C -3,9 C 78 % 1011,9 hPa 0,0 mm 0,0 km/h (0 Bft) W-NW 292 0 min -6,7 C 0,0 km/h (0 Bft)
28.04.2016 04:55 -3,4 C -3,8 C 78 % 1011,9 hPa 0,0 mm 0,0 km/h (0 Bft) SO 135 0 min -6,7 C 0,0 km/h (0 Bft)
28.04.2016 05:00 -3,4 C -3,6 C 75 % 1011,9 hPa 0,0 mm 0,0 km/h (0 Bft) O-NO 67 0 min -7,2 C 0,0 km/h (0 Bft)
28.04.2016 05:05 -3,3 C -3,7 C 77 % 1011,9 hPa 0,0 mm 0,0 km/h (0 Bft) O-SO 112 0 min -6,7 C 0,0 km/h (0 Bft)
28.04.2016 05:07 -3,3 C -3,8 C 77 % 1011,9 hPa 0,0 mm 0,0 km/h (0 Bft) O-SO 112 0 min -6,7 C 0,0 km/h (0 Bft)
28.04.2016 05:11 -3,3 C -3,8 C 77 % 1011,9 hPa 0,0 mm 0,0 km/h (0 Bft) O-SO 112 0 min -6,7 C 0,0 km/h (0 Bft)
28.04.2016 05:15 -3,4 C -3,9 C 77 % 1011,8 hPa 0,0 mm 0,0 km/h (0 Bft) O-NO 67 0 min -6,8 C 0,0 km/h (0 Bft)
28.04.2016 05:20 -3,5 C -3,9 C 77 % 1011,8 hPa 0,0 mm 0,0 km/h (0 Bft) NO 45 0 min -6,9 C 0,0 km/h (0 Bft)
28.04.2016 05:25 -3,7 C -4,1 C 76 % 1011,8 hPa 0,0 mm 0,0 km/h (0 Bft) N-NO 22 0 min -7,3 C 0,0 km/h (0 Bft)
28.04.2016 05:30 -3,4 C -3,9 C 77 % 1011,8 hPa 0,0 mm 0,0 km/h (0 Bft) O-NO 67 0 min -6,8 C 0,0 km/h (0 Bft)
28.04.2016 05:35 -3,2 C -3,6 C 74 % 1011,8 hPa 0,0 mm 0,0 km/h (0 Bft) O-SO 112 0 min -7,2 C 0,0 km/h (0 Bft)
28.04.2016 05:40 -3,2 C -3,5 C 74 % 1011,8 hPa 0,0 mm 0,0 km/h (0 Bft) O-NO 67 0 min -7,2 C 0,0 km/h (0 Bft)
28.04.2016 05:45 -3,2 C -3,6 C 76 % 1011,8 hPa 0,0 mm 0,0 km/h (0 Bft) N-NO 22 0 min -6,8 C 0,0 km/h (0 Bft)
28.04.2016 05:50 -3,2 C -3,4 C 74 % 1011,8 hPa 0,0 mm 0,0 km/h (0 Bft) O 90 0 min -7,2 C 0,0 km/h (0 Bft)
28.04.2016 05:55 -3,2 C -3,3 C 74 % 1011,9 hPa 0,0 mm 0,0 km/h (0 Bft) S-SW 202 0 min -7,2 C 0,0 km/h (0 Bft)
28.04.2016 06:00 -3,2 C -3,4 C 74 % 1011,9 hPa 0,0 mm 0,0 km/h (0 Bft) W-NW 292 0 min -7,2 C 0,0 km/h (0 Bft)
28.04.2016 06:05 -3,2 C -3,4 C 74 % 1011,9 hPa 0,0 mm 0,0 km/h (0 Bft) S-SO 157 0 min -7,2 C 0,0 km/h (0 Bft)
28.04.2016 06:10 -3,2 C -3,1 C 74 % 1011,9 hPa 0,0 mm 0,0 km/h (0 Bft) N-NO 22 0 min -7,2 C 0,0 km/h (0 Bft)
28.04.2016 06:15 -3,2 C -3,1 C 74 % 1011,9 hPa 0,0 mm 0,0 km/h (0 Bft) NO 45 0 min -7,2 C 0,0 km/h (0 Bft)
28.04.2016 06:20 -3,2 C -3,1 C 74 % 1011,9 hPa 0,0 mm 0,0 km/h (0 Bft) O-NO 67 0 min -7,2 C 0,0 km/h (0 Bft)
28.04.2016 06:25 -3,2 C -3,2 C 74 % 1011,9 hPa 0,0 mm 0,0 km/h (0 Bft) O-SO 112 0 min -7,2 C 0,0 km/h (0 Bft)
28.04.2016 06:30 -2,7 C -3,1 C 75 % 1011,9 hPa 0,0 mm 0,0 km/h (0 Bft) O-NO 67 0 min -6,5 C 0,0 km/h (0 Bft)
28.04.2016 06:35 -2,7 C -3,1 C 75 % 1012,1 hPa 0,0 mm 0,0 km/h (0 Bft) SO 135 0 min -6,5 C 0,0 km/h (0 Bft)
28.04.2016 06:40 -2,6 C -3,0 C 75 % 1012,1 hPa 0,0 mm 0,0 km/h (0 Bft) NO 45 0 min -6,4 C 0,0 km/h (0 Bft)
28.04.2016 06:45 -2,5 C -2,8 C 73 % 1012,1 hPa 0,0 mm 0,0 km/h (0 Bft) O-SO 112 0 min -6,7 C 0,0 km/h (0 Bft)
28.04.2016 06:50 -2,5 C -2,8 C 73 % 1012,1 hPa 0,0 mm 0,0 km/h (0 Bft) O-NO 67 0 min -6,7 C 0,0 km/h (0 Bft)
28.04.2016 06:55 -2,5 C -2,5 C 73 % 1012,3 hPa 0,0 mm 0,0 km/h (0 Bft) SO 135 0 min -6,7 C 0,0 km/h (0 Bft)
28.04.2016 07:00 -2,5 C -2,3 C 73 % 1012,3 hPa 0,0 mm 0,0 km/h (0 Bft) O-NO 67 0 min -6,7 C 0,0 km/h (0 Bft)
28.04.2016 07:05 -2,5 C -2,2 C 73 % 1012,3 hPa 0,0 mm 0,0 km/h (0 Bft) O-NO 67 0 min -6,7 C 0,0 km/h (0 Bft)
28.04.2016 07:10 -2,5 C -2,1 C 73 % 1012,3 hPa 0,0 mm 0,0 km/h (0 Bft) NO 45 0 min -6,7 C 0,0 km/h (0 Bft)
28.04.2016 07:15 -2,5 C -1,9 C 73 % 1012,4 hPa 0,0 mm 0,0 km/h (0 Bft) O 90 0 min -6,7 C 0,0 km/h (0 Bft)
28.04.2016 07:20 -2,5 C -1,8 C 73 % 1012,4 hPa 0,0 mm 0,0 km/h (0 Bft) O-NO 67 0 min -6,7 C 0,0 km/h (0 Bft)
28.04.2016 07:25 -2,5 C -1,5 C 73 % 1012,4 hPa 0,0 mm 0,0 km/h (0 Bft) O 90 0 min -6,7 C 0,0 km/h (0 Bft)
28.04.2016 07:30 -2,5 C -1,4 C 73 % 1012,4 hPa 0,0 mm 0,0 km/h (0 Bft) N-NO 22 0 min -6,7 C 0,0 km/h (0 Bft)
28.04.2016 07:35 -2,5 C -1,1 C 73 % 1012,8 hPa 0,0 mm 0,0 km/h (0 Bft) O-NO 67 0 min -6,7 C 0,0 km/h (0 Bft)
28.04.2016 07:40 -2,5 C -0,9 C 73 % 1012,8 hPa 0,0 mm 0,0 km/h (0 Bft) O-NO 67 0 min -6,7 C 0,0 km/h (0 Bft)
28.04.2016 07:45 -2,5 C -0,7 C 73 % 1012,8 hPa 0,0 mm 0,0 km/h (0 Bft) NO 45 0 min -6,7 C 0,0 km/h (0 Bft)
28.04.2016 07:50 -2,5 C -0,5 C 73 % 1012,8 hPa 0,0 mm 0,0 km/h (0 Bft) O-NO 67 0 min -6,7 C 0,0 km/h (0 Bft)
28.04.2016 07:55 -2,5 C -0,1 C 73 % 1012,9 hPa 0,0 mm 0,0 km/h (0 Bft) NO 45 0 min -6,7 C 0,0 km/h (0 Bft)
28.04.2016 08:00 -2,5 C 0,2 C 73 % 1012,9 hPa 0,0 mm 0,0 km/h (0 Bft) O-NO 67 0 min -6,7 C 0,0 km/h (0 Bft)
28.04.2016 08:05 -2,5 C 0,5 C 73 % 1012,9 hPa 0,0 mm 0,0 km/h (0 Bft) NO 45 0 min -6,7 C 0,0 km/h (0 Bft)
28.04.2016 08:10 -2,5 C 0,8 C 73 % 1012,9 hPa 0,0 mm 0,0 km/h (0 Bft) O-NO 67 0 min -6,7 C 0,0 km/h (0 Bft)
28.04.2016 08:12 0,0 C 0,8 C 73 % 1012,9 hPa 0,0 mm 0,0 km/h (0 Bft) O-NO 67 0 min -4,2 C 0,0 km/h (0 Bft)
28.04.2016 08:15 0,0 C 1,3 C 73 % 1013,0 hPa 0,0 mm 0,0 km/h (0 Bft) O-SO 112 0 min -4,2 C 0,0 km/h (0 Bft)
28.04.2016 08:20 0,0 C 1,5 C 73 % 1013,0 hPa 0,0 mm 0,0 km/h (0 Bft) W 270 0 min -4,2 C 0,0 km/h (0 Bft)
28.04.2016 08:25 0,0 C 1,8 C 72 % 1013,0 hPa 0,0 mm 0,0 km/h (0 Bft) O-NO 67 0 min -4,4 C 0,0 km/h (0 Bft)
28.04.2016 08:30 0,0 C 2,1 C 72 % 1013,0 hPa 0,0 mm 0,0 km/h (0 Bft) O-NO 67 0 min -4,4 C 0,0 km/h (0 Bft)
28.04.2016 08:35 0,0 C 2,7 C 71 % 1013,2 hPa 0,0 mm 0,0 km/h (0 Bft) SO 135 0 min -4,6 C 0,0 km/h (0 Bft)
28.04.2016 08:40 0,0 C 2,9 C 71 % 1013,2 hPa 0,0 mm 0,0 km/h (0 Bft) W-SW 247 0 min -4,6 C 0,0 km/h (0 Bft)
28.04.2016 08:45 0,0 C 3,1 C 69 % 1013,2 hPa 0,0 mm 1,2 km/h (1 Bft) NW 315 0 min -5,0 C 4,8 km/h (1 Bft)
28.04.2016 08:50 0,0 C 3,1 C 68 % 1013,2 hPa 0,0 mm 2,4 km/h (1 Bft) NW 315 0 min -5,2 C 7,5 km/h (2 Bft)
28.04.2016 08:55 0,0 C 3,0 C 67 % 1013,4 hPa 0,0 mm 5,4 km/h (1 Bft) W-NW 292 0 min -5,4 C 7,2 km/h (2 Bft)
28.04.2016 09:00 0,0 C 3,6 C 67 % 1013,4 hPa 0,0 mm 5,1 km/h (1 Bft) N-NW 337 0 min -5,4 C 5,4 km/h (1 Bft)
28.04.2016 09:05 0,0 C 4,9 C 65 % 1013,4 hPa 0,0 mm 3,3 km/h (1 Bft) N-NW 337 0 min -5,8 C 4,5 km/h (1 Bft)
28.04.2016 09:10 0,0 C 6,0 C 63 % 1013,4 hPa 0,0 mm 3,3 km/h (1 Bft) NW 315 0 min -6,2 C 4,5 km/h (1 Bft)
28.04.2016 09:15 2,7 C 6,8 C 68 % 1013,6 hPa 0,0 mm 2,4 km/h (1 Bft) NW 315 5 min -2,6 C 3,6 km/h (1 Bft)
28.04.2016 09:20 2,7 C 6,7 C 68 % 1013,6 hPa 0,0 mm 1,8 km/h (1 Bft) N 360 5 min -2,6 C 0,0 km/h (0 Bft)
28.04.2016 09:25 2,7 C 6,4 C 66 % 1013,6 hPa 0,0 mm 2,4 km/h (1 Bft) W 270 5 min -3,0 C 0,0 km/h (0 Bft)
28.04.2016 09:30 2,9 C 6,5 C 66 % 1013,6 hPa 0,0 mm 2,4 km/h (1 Bft) NW 315 0 min -2,8 C 3,0 km/h (1 Bft)
28.04.2016 09:35 3,3 C 7,1 C 64 % 1013,9 hPa 0,0 mm 1,5 km/h (1 Bft) O-NO 67 5 min -2,8 C 3,3 km/h (1 Bft)
28.04.2016 09:40 3,5 C 7,3 C 63 % 1013,9 hPa 0,0 mm 2,1 km/h (1 Bft) W-SW 247 5 min -2,9 C 5,4 km/h (1 Bft)
28.04.2016 09:45 3,7 C 7,5 C 61 % 1013,9 hPa 0,0 mm 3,3 km/h (1 Bft) NW 315 5 min -3,1 C 3,3 km/h (1 Bft)
28.04.2016 09:50 4,1 C 7,7 C 60 % 1013,9 hPa 0,0 mm 2,7 km/h (1 Bft) NW 315 5 min -3,0 C 3,9 km/h (1 Bft)
28.04.2016 09:55 4,3 C 8,1 C 59 % 1014,0 hPa 0,0 mm 3,6 km/h (1 Bft) S 180 5 min -3,0 C 7,7 km/h (2 Bft)
28.04.2016 10:00 4,1 C 7,9 C 57 % 1014,0 hPa 0,0 mm 4,8 km/h (1 Bft) N-NW 337 5 min -3,6 C 0,0 km/h (0 Bft)
28.04.2016 10:05 4,4 C 8,2 C 58 % 1014,0 hPa 0,0 mm 3,0 km/h (1 Bft) O-SO 112 5 min -3,1 C 0,0 km/h (0 Bft)
28.04.2016 10:10 4,5 C 8,2 C 57 % 1014,0 hPa 0,0 mm 2,4 km/h (1 Bft) NO 45 5 min -3,3 C 4,5 km/h (1 Bft)
28.04.2016 10:15 4,5 C 7,9 C 57 % 1014,1 hPa 0,0 mm 4,8 km/h (1 Bft) W 270 5 min -3,3 C 8,3 km/h (2 Bft)
28.04.2016 10:20 4,5 C 7,7 C 57 % 1014,1 hPa 0,0 mm 6,0 km/h (2 Bft) NW 315 0 min -3,3 C 7,7 km/h (2 Bft)
28.04.2016 10:25 4,5 C 7,5 C 57 % 1014,1 hPa 0,0 mm 5,7 km/h (1 Bft) NW 315 0 min -3,3 C 0,0 km/h (0 Bft)
28.04.2016 10:30 4,6 C 7,8 C 56 % 1014,1 hPa 0,0 mm 6,0 km/h (2 Bft) SW 225 0 min -3,4 C 17,6 km/h (3 Bft)
28.04.2016 10:35 4,9 C 8,8 C 56 % 1014,2 hPa 0,0 mm 4,8 km/h (1 Bft) W-NW 292 0 min -3,1 C 10,1 km/h (2 Bft)
28.04.2016 10:40 5,1 C 9,4 C 55 % 1014,2 hPa 0,0 mm 5,7 km/h (1 Bft) S-SW 202 5 min -3,2 C 3,6 km/h (1 Bft)
28.04.2016 10:45 5,6 C 9,9 C 55 % 1014,2 hPa 0,0 mm 6,3 km/h (2 Bft) W 270 5 min -2,7 C 8,3 km/h (2 Bft)
28.04.2016 10:50 6,0 C 10,4 C 53 % 1014,2 hPa 0,0 mm 6,9 km/h (2 Bft) N-NW 337 5 min -2,8 C 6,6 km/h (2 Bft)
28.04.2016 10:55 6,8 C 12,3 C 53 % 1014,4 hPa 0,0 mm 6,6 km/h (2 Bft) W 270 5 min -2,1 C 14,9 km/h (3 Bft)
28.04.2016 11:00 6,7 C 12,7 C 51 % 1014,4 hPa 0,0 mm 6,0 km/h (2 Bft) W 270 5 min -2,7 C 4,5 km/h (1 Bft)
28.04.2016 11:05 7,0 C 13,2 C 51 % 1014,4 hPa 0,0 mm 6,0 km/h (2 Bft) W 270 5 min -2,4 C 9,2 km/h (2 Bft)
28.04.2016 11:10 6,7 C 12,4 C 50 % 1014,4 hPa 0,0 mm 6,9 km/h (2 Bft) N-NW 337 5 min -3,0 C 11,9 km/h (2 Bft)
28.04.2016 11:13 6,3 C 10,5 C 50 % 1014,6 hPa 0,0 mm 10,1 km/h (2 Bft) S 180 3 min -3,3 C 9,2 km/h (2 Bft)
28.04.2016 11:15 6,3 C 10,5 C 50 % 1014,6 hPa 0,0 mm 10,1 km/h (2 Bft) S 180 2 min -3,3 C 33,1 km/h (5 Bft)
28.04.2016 11:20 6,0 C 9,9 C 49 % 1014,6 hPa 0,0 mm 8,6 km/h (2 Bft) S-SO 157 5 min -3,9 C 6,0 km/h (2 Bft)
28.04.2016 11:25 6,4 C 10,6 C 50 % 1014,6 hPa 0,0 mm 6,6 km/h (2 Bft) W 270 0 min -3,2 C 6,3 km/h (2 Bft)
28.04.2016 11:30 6,7 C 11,5 C 50 % 1014,6 hPa 0,0 mm 6,6 km/h (2 Bft) W-NW 292 0 min -3,0 C 10,1 km/h (2 Bft)
28.04.2016 11:35 6,9 C 11,7 C 48 % 1014,9 hPa 0,0 mm 9,8 km/h (2 Bft) W-NW 292 5 min -3,3 C 8,3 km/h (2 Bft)
28.04.2016 11:40 7,2 C 11,6 C 47 % 1014,9 hPa 0,0 mm 13,7 km/h (3 Bft) W 270 5 min -3,3 C 15,8 km/h (3 Bft)
28.04.2016 11:45 7,3 C 11,7 C 46 % 1014,9 hPa 0,0 mm 13,7 km/h (3 Bft) W-NW 292 5 min -3,5 C 26,8 km/h (4 Bft)
28.04.2016 11:50 6,9 C 10,9 C 46 % 1014,9 hPa 0,0 mm 14,6 km/h (3 Bft) N-NW 337 5 min -3,9 C 17,9 km/h (3 Bft)
28.04.2016 11:55 6,5 C 8,6 C 45 % 1015,1 hPa 0,0 mm 13,1 km/h (3 Bft) W-NW 292 0 min -4,6 C 19,4 km/h (3 Bft)
28.04.2016 12:00 6,4 C 8,4 C 46 % 1015,1 hPa 0,0 mm 11,0 km/h (2 Bft) NW 315 0 min -4,4 C 9,2 km/h (2 Bft)
28.04.2016 12:05 6,6 C 8,5 C 46 % 1015,1 hPa 0,0 mm 11,9 km/h (2 Bft) NW 315 0 min -4,2 C 17,0 km/h (3 Bft)
28.04.2016 12:10 6,3 C 7,5 C 46 % 1015,1 hPa 0,0 mm 12,8 km/h (3 Bft) N-NW 337 0 min -4,5 C 20,3 km/h (4 Bft)
28.04.2016 12:15 6,4 C 7,7 C 46 % 1015,2 hPa 0,0 mm 11,3 km/h (2 Bft) NW 315 0 min -4,4 C 14,0 km/h (3 Bft)
28.04.2016 12:20 7,1 C 9,3 C 46 % 1015,2 hPa 0,0 mm 12,2 km/h (2 Bft) NW 315 0 min -3,7 C 26,2 km/h (4 Bft)
28.04.2016 12:25 7,4 C 9,9 C 45 % 1015,2 hPa 0,0 mm 14,6 km/h (3 Bft) NW 315 0 min -3,7 C 23,8 km/h (4 Bft)
28.04.2016 12:30 7,4 C 10,1 C 45 % 1015,2 hPa 0,0 mm 16,7 km/h (3 Bft) NW 315 0 min -3,7 C 10,4 km/h (2 Bft)
28.04.2016 12:35 8,0 C 10,7 C 45 % 1015,1 hPa 0,0 mm 16,7 km/h (3 Bft) W-NW 292 0 min -3,2 C 34,9 km/h (5 Bft)
28.04.2016 12:40 7,6 C 10,8 C 44 % 1015,1 hPa 0,0 mm 16,1 km/h (3 Bft) W-NW 292 0 min -3,9 C 15,8 km/h (3 Bft)
28.04.2016 12:45 7,1 C 9,8 C 45 % 1015,1 hPa 0,0 mm 15,5 km/h (3 Bft) SW 225 0 min -4,0 C 8,9 km/h (2 Bft)
28.04.2016 12:50 7,0 C 9,2 C 46 % 1015,1 hPa 0,0 mm 10,7 km/h (2 Bft) W 270 0 min -3,8 C 11,3 km/h (2 Bft)
28.04.2016 12:55 7,1 C 9,8 C 45 % 1015,1 hPa 0,0 mm 8,6 km/h (2 Bft) SW 225 0 min -4,0 C 15,5 km/h (3 Bft)
28.04.2016 13:00 7,0 C 9,4 C 44 % 1015,1 hPa 0,0 mm 11,9 km/h (2 Bft) W 270 0 min -4,4 C 18,5 km/h (3 Bft)
28.04.2016 13:05 7,1 C 10,2 C 44 % 1015,1 hPa 0,0 mm 10,1 km/h (2 Bft) W-NW 292 0 min -4,3 C 10,7 km/h (2 Bft)
28.04.2016 13:10 7,2 C 10,5 C 45 % 1015,1 hPa 0,0 mm 7,5 km/h (2 Bft) W 270 0 min -3,9 C 16,7 km/h (3 Bft)
28.04.2016 13:15 7,1 C 9,4 C 44 % 1015,1 hPa 0,0 mm 10,4 km/h (2 Bft) W 270 0 min -4,3 C 8,0 km/h (2 Bft)
28.04.2016 13:20 6,9 C 8,8 C 45 % 1015,1 hPa 0,0 mm 11,0 km/h (2 Bft) W 270 0 min -4,2 C 20,0 km/h (4 Bft)
28.04.2016 13:25 6,8 C 8,7 C 45 % 1015,1 hPa 0,0 mm 8,9 km/h (2 Bft) W-NW 292 0 min -4,3 C 9,2 km/h (2 Bft)
28.04.2016 13:30 6,8 C 9,2 C 45 % 1015,1 hPa 0,0 mm 8,0 km/h (2 Bft) SW 225 0 min -4,3 C 8,9 km/h (2 Bft)
28.04.2016 13:35 7,5 C 10,5 C 45 % 1015,0 hPa 0,0 mm 7,2 km/h (2 Bft) W-SW 247 0 min -3,6 C 10,7 km/h (2 Bft)
28.04.2016 13:40 8,1 C 11,7 C 44 % 1015,0 hPa 0,0 mm 9,5 km/h (2 Bft) W-SW 247 5 min -3,4 C 19,1 km/h (3 Bft)
28.04.2016 13:45 7,5 C 10,6 C 44 % 1015,0 hPa 0,0 mm 11,0 km/h (2 Bft) NW 315 0 min -3,9 C 7,5 km/h (2 Bft)
28.04.2016 13:50 7,5 C 10,1 C 44 % 1015,0 hPa 0,0 mm 10,7 km/h (2 Bft) W 270 0 min -3,9 C 12,2 km/h (2 Bft)
28.04.2016 13:55 7,4 C 9,9 C 44 % 1014,9 hPa 0,0 mm 9,8 km/h (2 Bft) SW 225 0 min -4,0 C 6,9 km/h (2 Bft)
28.04.2016 14:00 7,5 C 9,4 C 44 % 1014,9 hPa 0,0 mm 12,8 km/h (3 Bft) W-NW 292 0 min -3,9 C 17,3 km/h (3 Bft)
28.04.2016 14:05 8,5 C 11,3 C 44 % 1014,9 hPa 0,0 mm 14,0 km/h (3 Bft) NW 315 0 min -3,0 C 14,6 km/h (3 Bft)
28.04.2016 14:10 8,6 C 11,7 C 44 % 1014,9 hPa 0,0 mm 14,0 km/h (3 Bft) W-SW 247 0 min -2,9 C 18,8 km/h (3 Bft)
28.04.2016 14:12 8,1 C 10,4 C 44 % 1014,8 hPa 0,0 mm 13,4 km/h (3 Bft) NW 315 0 min -3,4 C 20,0 km/h (4 Bft)
28.04.2016 14:14 8,1 C 10,4 C 44 % 1014,8 hPa 0,0 mm 13,4 km/h (3 Bft) NW 315 0 min -3,4 C 20,0 km/h (4 Bft)
28.04.2016 14:15 8,1 C 10,4 C 44 % 1014,8 hPa 0,0 mm 13,4 km/h (3 Bft) NW 315 0 min -3,4 C 20,0 km/h (4 Bft)
28.04.2016 14:20 8,4 C 10,6 C 44 % 1014,8 hPa 0,0 mm 15,2 km/h (3 Bft) W-NW 292 0 min -3,1 C 15,2 km/h (3 Bft)
28.04.2016 14:25 8,9 C 11,3 C 45 % 1014,8 hPa 0,0 mm 16,7 km/h (3 Bft) NW 315 0 min -2,4 C 27,4 km/h (4 Bft)
28.04.2016 14:30 9,4 C 12,7 C 45 % 1014,8 hPa 0,0 mm 13,7 km/h (3 Bft) NW 315 0 min -1,9 C 10,4 km/h (2 Bft)
28.04.2016 14:35 9,5 C 14,3 C 44 % 1014,8 hPa 0,0 mm 11,9 km/h (2 Bft) S 180 5 min -2,1 C 26,5 km/h (4 Bft)
28.04.2016 14:40 9,1 C 13,7 C 43 % 1014,8 hPa 0,0 mm 12,5 km/h (3 Bft) W 270 5 min -2,8 C 17,9 km/h (3 Bft)
28.04.2016 14:45 9,2 C 13,8 C 43 % 1014,8 hPa 0,0 mm 13,7 km/h (3 Bft) NW 315 0 min -2,7 C 12,2 km/h (2 Bft)
28.04.2016 14:50 9,5 C 14,4 C 43 % 1014,8 hPa 0,0 mm 11,3 km/h (2 Bft) W-SW 247 5 min -2,4 C 14,6 km/h (3 Bft)
28.04.2016 14:55 9,3 C 14,1 C 43 % 1014,9 hPa 0,0 mm 9,8 km/h (2 Bft) SW 225 5 min -2,6 C 20,0 km/h (4 Bft)
28.04.2016 15:00 9,1 C 13,3 C 43 % 1014,9 hPa 0,0 mm 10,7 km/h (2 Bft) W-SW 247 5 min -2,8 C 24,4 km/h (4 Bft)
28.04.2016 15:05 8,6 C 11,5 C 43 % 1014,9 hPa 0,0 mm 13,4 km/h (3 Bft) NO 45 0 min -3,3 C 13,4 km/h (3 Bft)
28.04.2016 15:10 8,2 C 11,0 C 42 % 1014,9 hPa 0,0 mm 13,7 km/h (3 Bft) S 180 0 min -3,9 C 14,9 km/h (3 Bft)
28.04.2016 15:15 8,6 C 11,4 C 43 % 1014,8 hPa 0,0 mm 11,3 km/h (2 Bft) W 270 0 min -3,3 C 8,9 km/h (2 Bft)
28.04.2016 15:20 8,9 C 12,2 C 43 % 1014,8 hPa 0,0 mm 12,5 km/h (3 Bft) NW 315 0 min -3,0 C 14,9 km/h (3 Bft)
28.04.2016 15:25 9,4 C 13,3 C 42 % 1014,8 hPa 0,0 mm 12,8 km/h (3 Bft) W 270 0 min -2,8 C 13,1 km/h (3 Bft)
28.04.2016 15:30 9,4 C 13,9 C 42 % 1014,8 hPa 0,0 mm 12,2 km/h (2 Bft) S-SW 202 5 min -2,8 C 20,0 km/h (4 Bft)
28.04.2016 15:35 8,3 C 11,8 C 42 % 1014,8 hPa 0,0 mm 10,4 km/h (2 Bft) W-SW 247 5 min -3,8 C 10,7 km/h (2 Bft)
28.04.2016 15:40 8,1 C 11,0 C 43 % 1014,8 hPa 0,0 mm 9,2 km/h (2 Bft) S 180 5 min -3,7 C 7,5 km/h (2 Bft)
28.04.2016 15:45 7,7 C 9,8 C 42 % 1014,8 hPa 0,0 mm 8,0 km/h (2 Bft) W-SW 247 0 min -4,4 C 9,5 km/h (2 Bft)
28.04.2016 15:50 7,6 C 9,1 C 43 % 1014,8 hPa 0,0 mm 9,2 km/h (2 Bft) SW 225 0 min -4,2 C 3,9 km/h (1 Bft)
28.04.2016 15:55 7,4 C 9,0 C 43 % 1014,6 hPa 0,0 mm 8,3 km/h (2 Bft) W-SW 247 0 min -4,3 C 14,0 km/h (3 Bft)
28.04.2016 16:00 7,8 C 9,9 C 43 % 1014,6 hPa 0,0 mm 8,0 km/h (2 Bft) W 270 0 min -4,0 C 17,9 km/h (3 Bft)
28.04.2016 16:05 8,3 C 11,1 C 43 % 1014,6 hPa 0,0 mm 6,9 km/h (2 Bft) W-SW 247 0 min -3,5 C 3,9 km/h (1 Bft)
28.04.2016 16:10 8,0 C 10,6 C 43 % 1014,6 hPa 0,0 mm 6,9 km/h (2 Bft) W-NW 292 0 min -3,8 C 10,1 km/h (2 Bft)
28.04.2016 16:15 8,1 C 10,8 C 43 % 1014,4 hPa 0,0 mm 6,6 km/h (2 Bft) W 270 0 min -3,7 C 11,9 km/h (2 Bft)
28.04.2016 16:20 8,2 C 11,1 C 43 % 1014,4 hPa 0,0 mm 7,5 km/h (2 Bft) W 270 0 min -3,6 C 8,0 km/h (2 Bft)
28.04.2016 16:25 8,2 C 10,9 C 41 % 1014,4 hPa 0,0 mm 10,4 km/h (2 Bft) W 270 0 min -4,3 C 12,5 km/h (3 Bft)
28.04.2016 16:30 8,1 C 10,2 C 41 % 1014,4 hPa 0,0 mm 10,7 km/h (2 Bft) W 270 0 min -4,3 C 18,8 km/h (3 Bft)
28.04.2016 16:35 7,9 C 9,3 C 40 % 1014,3 hPa 0,0 mm 11,3 km/h (2 Bft) S 180 0 min -4,8 C 20,6 km/h (4 Bft)
28.04.2016 16:40 7,7 C 8,7 C 40 % 1014,3 hPa 0,0 mm 12,5 km/h (3 Bft) W 270 0 min -5,0 C 8,3 km/h (2 Bft)
28.04.2016 16:45 7,7 C 8,9 C 41 % 1014,3 hPa 0,0 mm 9,5 km/h (2 Bft) W 270 0 min -4,7 C 8,6 km/h (2 Bft)
28.04.2016 16:50 7,5 C 8,9 C 41 % 1014,3 hPa 0,0 mm 7,5 km/h (2 Bft) NW 315 0 min -4,9 C 5,1 km/h (1 Bft)
28.04.2016 16:55 7,6 C 8,9 C 42 % 1014,3 hPa 0,0 mm 6,6 km/h (2 Bft) NW 315 0 min -4,5 C 8,9 km/h (2 Bft)
28.04.2016 17:00 7,6 C 8,9 C 42 % 1014,3 hPa 0,0 mm 5,1 km/h (1 Bft) W 270 0 min -4,5 C 8,6 km/h (2 Bft)
28.04.2016 17:05 7,8 C 9,2 C 42 % 1014,3 hPa 0,0 mm 6,3 km/h (2 Bft) W-SW 247 0 min -4,3 C 6,9 km/h (2 Bft)
28.04.2016 17:10 7,9 C 9,2 C 42 % 1014,3 hPa 0,0 mm 7,5 km/h (2 Bft) W 270 0 min -4,2 C 16,4 km/h (3 Bft)
28.04.2016 17:12 7,7 C 8,6 C 41 % 1014,2 hPa 0,0 mm 9,2 km/h (2 Bft) W 270 0 min -4,7 C 11,6 km/h (2 Bft)
28.04.2016 17:15 7,7 C 8,6 C 41 % 1014,2 hPa 0,0 mm 9,2 km/h (2 Bft) W 270 0 min -4,7 C 11,6 km/h (2 Bft)
28.04.2016 17:20 7,6 C 8,1 C 42 % 1014,2 hPa 0,0 mm 10,4 km/h (2 Bft) NW 315 0 min -4,5 C 9,2 km/h (2 Bft)
28.04.2016 17:25 7,7 C 8,5 C 43 % 1014,2 hPa 0,0 mm 8,0 km/h (2 Bft) W-NW 292 0 min -4,1 C 6,9 km/h (2 Bft)
28.04.2016 17:30 8,1 C 9,2 C 43 % 1014,2 hPa 0,0 mm 7,7 km/h (2 Bft) W 270 0 min -3,7 C 8,3 km/h (2 Bft)
28.04.2016 17:35 8,4 C 9,0 C 43 % 1014,4 hPa 0,0 mm 12,5 km/h (3 Bft) NW 315 0 min -3,4 C 12,5 km/h (3 Bft)
28.04.2016 17:40 8,4 C 9,3 C 42 % 1014,4 hPa 0,0 mm 14,3 km/h (3 Bft) W 270 0 min -3,8 C 17,0 km/h (3 Bft)
28.04.2016 17:45 8,4 C 8,9 C 42 % 1014,4 hPa 0,0 mm 13,4 km/h (3 Bft) NW 315 0 min -3,8 C 11,9 km/h (2 Bft)
28.04.2016 17:50 8,3 C 8,8 C 42 % 1014,4 hPa 0,0 mm 12,8 km/h (3 Bft) W 270 0 min -3,8 C 16,1 km/h (3 Bft)
28.04.2016 17:55 8,1 C 8,6 C 42 % 1014,6 hPa 0,0 mm 12,2 km/h (2 Bft) NW 315 0 min -4,0 C 9,8 km/h (2 Bft)
28.04.2016 18:00 8,1 C 8,9 C 42 % 1014,6 hPa 0,0 mm 12,8 km/h (3 Bft) S 180 0 min -4,0 C 8,3 km/h (2 Bft)
28.04.2016 18:05 8,0 C 9,2 C 42 % 1014,6 hPa 0,0 mm 11,0 km/h (2 Bft) NW 315 0 min -4,1 C 17,0 km/h (3 Bft)
28.04.2016 18:10 8,1 C 8,6 C 43 % 1014,6 hPa 0,0 mm 11,0 km/h (2 Bft) NW 315 0 min -3,7 C 19,1 km/h (3 Bft)
28.04.2016 18:15 7,5 C 7,5 C 42 % 1014,6 hPa 0,0 mm 13,4 km/h (3 Bft) W 270 0 min -4,6 C 7,7 km/h (2 Bft)
28.04.2016 18:20 7,1 C 7,2 C 43 % 1014,6 hPa 0,0 mm 10,4 km/h (2 Bft) W-SW 247 0 min -4,6 C 5,4 km/h (1 Bft)
28.04.2016 18:25 6,9 C 7,5 C 43 % 1014,6 hPa 0,0 mm 3,6 km/h (1 Bft) S-SO 157 0 min -4,8 C 0,0 km/h (0 Bft)
28.04.2016 18:30 7,1 C 8,2 C 43 % 1014,6 hPa 0,0 mm 2,7 km/h (1 Bft) NW 315 0 min -4,6 C 15,5 km/h (3 Bft)
28.04.2016 18:35 7,2 C 8,5 C 44 % 1014,6 hPa 0,0 mm 4,2 km/h (1 Bft) NW 315 0 min -4,2 C 9,2 km/h (2 Bft)
28.04.2016 18:40 7,4 C 8,5 C 44 % 1014,6 hPa 0,0 mm 6,3 km/h (2 Bft) N-NW 337 0 min -4,0 C 6,3 km/h (2 Bft)
28.04.2016 18:45 7,8 C 9,3 C 44 % 1014,6 hPa 0,0 mm 6,0 km/h (2 Bft) N-NO 22 0 min -3,7 C 4,5 km/h (1 Bft)
28.04.2016 18:50 7,9 C 9,5 C 44 % 1014,6 hPa 0,0 mm 4,8 km/h (1 Bft) W-NW 292 0 min -3,6 C 7,2 km/h (2 Bft)
28.04.2016 18:55 8,1 C 9,5 C 44 % 1014,6 hPa 0,0 mm 6,9 km/h (2 Bft) N-NW 337 0 min -3,4 C 8,3 km/h (2 Bft)
28.04.2016 19:00 8,1 C 9,2 C 44 % 1014,6 hPa 0,0 mm 8,3 km/h (2 Bft) W-NW 292 0 min -3,4 C 16,1 km/h (3 Bft)
28.04.2016 19:05 8,0 C 9,5 C 45 % 1014,6 hPa 0,0 mm 8,9 km/h (2 Bft) NW 315 0 min -3,2 C 12,5 km/h (3 Bft)
28.04.2016 19:10 7,9 C 9,7 C 45 % 1014,6 hPa 0,0 mm 8,9 km/h (2 Bft) NW 315 0 min -3,3 C 13,1 km/h (3 Bft)
28.04.2016 19:15 7,9 C 10,0 C 45 % 1014,7 hPa 0,0 mm 8,3 km/h (2 Bft) NW 315 0 min -3,3 C 11,6 km/h (2 Bft)
28.04.2016 19:20 7,7 C 9,9 C 45 % 1014,7 hPa 0,0 mm 8,6 km/h (2 Bft) W-NW 292 5 min -3,5 C 12,5 km/h (3 Bft)
28.04.2016 19:25 7,6 C 9,8 C 46 % 1014,7 hPa 0,0 mm 8,6 km/h (2 Bft) NW 315 5 min -3,3 C 13,4 km/h (3 Bft)
28.04.2016 19:30 7,4 C 9,7 C 46 % 1014,7 hPa 0,0 mm 8,3 km/h (2 Bft) NW 315 5 min -3,4 C 5,4 km/h (1 Bft)
28.04.2016 19:35 7,1 C 9,4 C 47 % 1014,9 hPa 0,0 mm 8,3 km/h (2 Bft) W 270 5 min -3,4 C 8,3 km/h (2 Bft)
28.04.2016 19:40 6,9 C 9,0 C 47 % 1014,9 hPa 0,0 mm 8,3 km/h (2 Bft) W-NW 292 0 min -3,6 C 13,4 km/h (3 Bft)
28.04.2016 19:45 6,5 C 8,3 C 47 % 1014,9 hPa 0,0 mm 8,6 km/h (2 Bft) N 360 0 min -4,0 C 6,6 km/h (2 Bft)
28.04.2016 19:50 6,2 C 8,0 C 47 % 1014,9 hPa 0,0 mm 8,0 km/h (2 Bft) W-NW 292 0 min -4,3 C 6,3 km/h (2 Bft)
28.04.2016 19:55 5,9 C 7,8 C 49 % 1015,0 hPa 0,0 mm 6,0 km/h (2 Bft) W-SW 247 0 min -4,0 C 6,9 km/h (2 Bft)
28.04.2016 20:00 5,6 C 7,6 C 49 % 1015,0 hPa 0,0 mm 4,8 km/h (1 Bft) W-NW 292 0 min -4,3 C 7,7 km/h (2 Bft)
28.04.2016 20:05 5,2 C 7,0 C 50 % 1015,0 hPa 0,0 mm 3,0 km/h (1 Bft) W 270 0 min -4,4 C 0,0 km/h (0 Bft)
28.04.2016 20:10 4,9 C 6,6 C 50 % 1015,0 hPa 0,0 mm 2,7 km/h (1 Bft) W-SW 247 0 min -4,6 C 3,3 km/h (1 Bft)
28.04.2016 20:12 4,5 C 5,4 C 51 % 1015,1 hPa 0,0 mm 1,2 km/h (1 Bft) N-NW 337 0 min -4,7 C 0,0 km/h (0 Bft)
28.04.2016 20:16 4,5 C 5,4 C 51 % 1015,1 hPa 0,0 mm 1,2 km/h (1 Bft) N-NW 337 0 min -4,7 C 0,0 km/h (0 Bft)
28.04.2016 20:20 4,2 C 4,6 C 51 % 1015,1 hPa 0,0 mm 1,2 km/h (1 Bft) NW 315 0 min -5,0 C 0,0 km/h (0 Bft)
28.04.2016 20:25 3,7 C 3,7 C 52 % 1015,1 hPa 0,0 mm 2,1 km/h (1 Bft) N-NO 22 0 min -5,2 C 0,0 km/h (0 Bft)
28.04.2016 20:30 3,6 C 3,4 C 54 % 1015,1 hPa 0,0 mm 1,8 km/h (1 Bft) NW 315 0 min -4,8 C 3,3 km/h (1 Bft)
28.04.2016 20:35 3,7 C 3,3 C 57 % 1015,3 hPa 0,0 mm 1,8 km/h (1 Bft) O-NO 67 0 min -4,0 C 4,5 km/h (1 Bft)
28.04.2016 20:40 3,6 C 3,2 C 58 % 1015,3 hPa 0,0 mm 2,1 km/h (1 Bft) O-SO 112 0 min -3,9 C 0,0 km/h (0 Bft)
28.04.2016 20:45 3,4 C 2,9 C 58 % 1015,3 hPa 0,0 mm 0,9 km/h (0 Bft) NO 45 0 min -4,1 C 0,0 km/h (0 Bft)
28.04.2016 20:50 2,9 C 2,5 C 58 % 1015,3 hPa 0,0 mm 0,3 km/h (0 Bft) SW 225 0 min -4,5 C 0,0 km/h (0 Bft)
28.04.2016 20:55 2,6 C 2,1 C 58 % 1015,5 hPa 0,0 mm 0,3 km/h (0 Bft) W 270 0 min -4,8 C 0,0 km/h (0 Bft)
28.04.2016 21:00 2,7 C 2,1 C 59 % 1015,5 hPa 0,0 mm 0,0 km/h (0 Bft) S-SW 202 0 min -4,5 C 0,0 km/h (0 Bft)
28.04.2016 21:05 2,5 C 1,9 C 65 % 1015,5 hPa 0,0 mm 0,0 km/h (0 Bft) SO 135 0 min -3,4 C 0,0 km/h (0 Bft)
28.04.2016 21:10 2,5 C 1,9 C 65 % 1015,5 hPa 0,0 mm 0,0 km/h (0 Bft) SO 135 0 min -3,4 C 0,0 km/h (0 Bft)
28.04.2016 21:15 2,5 C 1,9 C 65 % 1015,7 hPa 0,0 mm 0,3 km/h (0 Bft) S 180 0 min -3,4 C 0,0 km/h (0 Bft)
28.04.2016 21:20 2,2 C 1,7 C 66 % 1015,7 hPa 0,0 mm 0,9 km/h (0 Bft) S-SO 157 0 min -3,5 C 4,5 km/h (1 Bft)
28.04.2016 21:25 2,4 C 1,9 C 67 % 1015,7 hPa 0,0 mm 0,9 km/h (0 Bft) S-SO 157 0 min -3,1 C 3,9 km/h (1 Bft)
28.04.2016 21:30 2,2 C 1,8 C 68 % 1015,7 hPa 0,0 mm 1,5 km/h (1 Bft) S-SO 157 0 min -3,1 C 3,6 km/h (1 Bft)
28.04.2016 21:35 2,1 C 1,7 C 68 % 1015,9 hPa 0,0 mm 3,0 km/h (1 Bft) S-SO 157 0 min -3,2 C 4,5 km/h (1 Bft)
28.04.2016 21:40 1,9 C 1,6 C 68 % 1015,9 hPa 0,0 mm 3,9 km/h (1 Bft) S-SO 157 0 min -3,4 C 3,3 km/h (1 Bft)
28.04.2016 21:45 1,9 C 1,6 C 68 % 1015,9 hPa 0,0 mm 3,9 km/h (1 Bft) S-SO 157 0 min -3,4 C 3,6 km/h (1 Bft)
28.04.2016 21:50 1,8 C 1,5 C 69 % 1015,9 hPa 0,0 mm 2,4 km/h (1 Bft) S-SO 157 0 min -3,3 C 0,0 km/h (0 Bft)
28.04.2016 21:55 1,7 C 1,4 C 71 % 1015,9 hPa 0,0 mm 1,2 km/h (1 Bft) S-SO 157 0 min -3,0 C 0,0 km/h (0 Bft)
28.04.2016 22:00 1,7 C 1,5 C 72 % 1015,9 hPa 0,0 mm 0,6 km/h (0 Bft) S-SO 157 0 min -2,8 C 0,0 km/h (0 Bft)
28.04.2016 22:05 1,6 C 1,3 C 73 % 1015,9 hPa 0,0 mm 0,0 km/h (0 Bft) O 90 0 min -2,7 C 0,0 km/h (0 Bft)
28.04.2016 22:10 1,2 C 1,0 C 72 % 1015,9 hPa 0,0 mm 0,0 km/h (0 Bft) O 90 0 min -3,3 C 0,0 km/h (0 Bft)
28.04.2016 22:15 1,3 C 1,0 C 72 % 1016,1 hPa 0,0 mm 0,0 km/h (0 Bft) NO 45 0 min -3,2 C 0,0 km/h (0 Bft)
28.04.2016 22:20 0,9 C 0,6 C 72 % 1016,1 hPa 0,0 mm 0,0 km/h (0 Bft) N-NO 22 0 min -3,6 C 0,0 km/h (0 Bft)
28.04.2016 22:25 0,8 C 0,4 C 71 % 1016,1 hPa 0,0 mm 0,0 km/h (0 Bft) O 90 0 min -3,8 C 0,0 km/h (0 Bft)
28.04.2016 22:30 0,9 C 0,4 C 72 % 1016,1 hPa 0,0 mm 0,0 km/h (0 Bft) O-NO 67 0 min -3,6 C 0,0 km/h (0 Bft)
28.04.2016 22:35 0,6 C 0,2 C 71 % 1015,9 hPa 0,0 mm 0,0 km/h (0 Bft) W-SW 247 0 min -4,0 C 0,0 km/h (0 Bft)
28.04.2016 22:40 0,7 C 0,2 C 72 % 1015,9 hPa 0,0 mm 0,0 km/h (0 Bft) S-SO 157 0 min -3,8 C 0,0 km/h (0 Bft)
28.04.2016 22:45 0,9 C 0,3 C 74 % 1015,9 hPa 0,0 mm 0,0 km/h (0 Bft) O-NO 67 0 min -3,2 C 0,0 km/h (0 Bft)
28.04.2016 22:50 0,8 C 0,3 C 74 % 1015,9 hPa 0,0 mm 0,0 km/h (0 Bft) S 180 0 min -3,3 C 0,0 km/h (0 Bft)
28.04.2016 22:55 0,6 C 0,1 C 74 % 1016,1 hPa 0,0 mm 0,0 km/h (0 Bft) NO 45 0 min -3,5 C 0,0 km/h (0 Bft)
28.04.2016 23:00 0,5 C 0,0 C 73 % 1016,1 hPa 0,0 mm 0,0 km/h (0 Bft) O-NO 67 0 min -3,8 C 0,0 km/h (0 Bft)
28.04.2016 23:05 0,2 C -0,3 C 73 % 1016,1 hPa 0,0 mm 0,0 km/h (0 Bft) O-NO 67 0 min -4,1 C 0,0 km/h (0 Bft)
28.04.2016 23:10 0,1 C -0,4 C 73 % 1016,1 hPa 0,0 mm 0,0 km/h (0 Bft) N-NO 22 0 min -4,2 C 0,0 km/h (0 Bft)
28.04.2016 23:15 -0,2 C -0,7 C 73 % 1016,1 hPa 0,0 mm 0,0 km/h (0 Bft) NO 45 0 min -4,4 C 0,0 km/h (0 Bft)
28.04.2016 23:17 -0,2 C -0,7 C 73 % 1016,1 hPa 0,0 mm 0,0 km/h (0 Bft) NO 45 0 min -4,4 C 0,0 km/h (0 Bft)
28.04.2016 23:20 -0,1 C -0,7 C 75 % 1016,1 hPa 0,0 mm 0,0 km/h (0 Bft) O-SO 112 0 min -4,0 C 0,0 km/h (0 Bft)
28.04.2016 23:25 0,0 C -0,5 C 76 % 1016,1 hPa 0,0 mm 0,0 km/h (0 Bft) N-NO 22 0 min -3,7 C 0,0 km/h (0 Bft)
28.04.2016 23:30 -0,2 C -0,8 C 75 % 1016,1 hPa 0,0 mm 0,0 km/h (0 Bft) N-NO 22 0 min -4,1 C 0,0 km/h (0 Bft)
28.04.2016 23:35 -0,4 C -1,0 C 75 % 1016,0 hPa 0,0 mm 0,0 km/h (0 Bft) N-NO 22 0 min -4,3 C 0,0 km/h (0 Bft)
28.04.2016 23:40 -0,3 C -1,0 C 75 % 1016,0 hPa 0,0 mm 0,0 km/h (0 Bft) N-NO 22 0 min -4,2 C 0,0 km/h (0 Bft)
28.04.2016 23:45 -0,5 C -1,2 C 75 % 1016,0 hPa 0,0 mm 0,0 km/h (0 Bft) S-SO 157 0 min -4,4 C 0,0 km/h (0 Bft)
28.04.2016 23:50 -0,2 C -0,9 C 76 % 1016,0 hPa 0,0 mm 0,0 km/h (0 Bft) O-NO 67 0 min -3,9 C 0,0 km/h (0 Bft)
28.04.2016 23:55 -0,3 C -1,0 C 76 % 1015,9 hPa 0,0 mm 0,0 km/h (0 Bft) O-NO 67 0 min -4,0 C 0,0 km/h (0 Bft)
_ Min-Zeit 04:05 04:05 16:40 05:50 - 23:55 - - - 04:05 23:55
Minimum _ -4,8 C -5,4 C 40 % 1011,8 hPa - 0,0 km/h (0 Bft) - - - -8,2 C 0,0 km/h (0 Bft)
_ Max-Zeit 14:50 14:50 04:55 23:30 23:55 14:25 - - 19:35 14:30 12:35
Maximum _ 9,5 C 14,4 C 78 % 1016,1 hPa 0,0 mm 16,7 km/h
NW (3 Bft)
- - 5 min -1,9 C 34,9 km/h
W-NW (5 Bft)
Durchschnitt _ 2,3 C 3,5 C 61 % 1013,9 hPa #0,0 mm 4,3 km/h (1 Bft) NW - #3:10 h -4,9 C 5,6 km/h (1 Bft)